Weather History for KAXN - May, 2009

Change the Weather History Date:

Thursday, May 7, 2009

  Actual Average Record
Temperature  
Mean Temperature 59 °F -  
Max Temperature 71 °F 64 °F 89 °F (1990)
Min Temperature 48 °F 42 °F 29 °F (1976)
Degree Days  
Heating Degree Days 6    
Growing Degree Days 9 (Base 50)    
Moisture  
Dew Point 38 °F    
Average Humidity 49    
Maximum Humidity 74    
Minimum Humidity 29    
Precipitation  
Precipitation 0.00 in - - ()
Sea Level Pressure  
Sea Level Pressure 29.70 in    
Wind  
Wind Speed 11 mph (WNW)    
Max Wind Speed 22 mph    
Max Gust Speed 31 mph    
Visibility 10 miles    
Events      
Averages and records for this station are not official NWS values.
T = Trace of Precipitation, MM = Missing Value Source: NWS Daily Summary

Daily Weather History Graph

Daily Weather History Graph

Search for Another Location

Airport or City:

Trip Planner

Search our weather history database for the weather conditions in past years. The results will help you decide how hot, cold, wet, or windy it might be!

Date:

Astronomy

May. 07, 2009 Rise Set
Actual Time 5:59 AM CDT 8:37 PM CDT
Civil Twilight 5:25 AM CDT 9:11 PM CDT
Nautical Twilight 4:43 AM CDT 9:54 PM CDT
Astronomical Twilight 3:54 AM CDT 10:43 PM CDT
Moon 7:35 PM CDT (5/7) 4:45 AM CDT (5/7)
Length of Visible Light 15h 45m
Length of Day
14h 37m
Waxing Gibbous, 98% of the Moon is Illuminated
May 7
Waxing Gibbous
May 8
Full
May 17
Last Quarter
May 24
New
May 30
First Quarter

Hourly Weather History & Observations

Time (CDT) Temp. Dew Point Humidity Pressure Visibility Wind Dir Wind Speed Gust Speed Precip Events Conditions
12:53 AM 51.1 °F 37.9 °F 61% 29.66 in 10.0 mi WSW 8.1 mph - N/A   Clear
1:53 AM 50.0 °F 37.0 °F 61% 29.65 in 10.0 mi West 6.9 mph - N/A   Clear
2:53 AM 52.0 °F 37.9 °F 59% 29.65 in 10.0 mi West 9.2 mph - N/A   Clear
3:53 AM 48.9 °F 37.9 °F 66% 29.67 in 10.0 mi WSW 8.1 mph - N/A   Clear
6:53 AM 50.0 °F 37.9 °F 63% 29.68 in 10.0 mi West 6.9 mph - N/A   Clear
7:53 AM 54.0 °F 39.0 °F 57% 29.70 in 10.0 mi WNW 5.8 mph - N/A   Clear
8:53 AM 57.0 °F 39.9 °F 53% 29.70 in 10.0 mi WNW 6.9 mph - N/A   Clear
9:53 AM 60.1 °F 39.9 °F 47% 29.70 in 10.0 mi West 10.4 mph - N/A   Clear
10:53 AM 64.0 °F 39.0 °F 40% 29.70 in 10.0 mi West 12.7 mph - N/A   Clear
11:53 AM 66.9 °F 39.0 °F 36% 29.70 in 10.0 mi West 20.7 mph 24.2 mph N/A   Clear
12:53 PM 68.0 °F 37.0 °F 32% 29.70 in 10.0 mi West 21.9 mph 28.8 mph N/A   Clear
1:53 PM 68.0 °F 36.0 °F 31% 29.69 in 10.0 mi WNW 20.7 mph 31.1 mph N/A   Scattered Clouds
2:53 PM 70.0 °F 36.0 °F 29% 29.68 in 10.0 mi West 20.7 mph 27.6 mph N/A   Partly Cloudy
3:53 PM 69.1 °F 36.0 °F 30% 29.67 in 10.0 mi WNW 18.4 mph 26.5 mph N/A   Partly Cloudy
4:53 PM 68.0 °F 37.9 °F 33% 29.67 in 10.0 mi WNW 20.7 mph 26.5 mph N/A   Scattered Clouds
5:53 PM 68.0 °F 37.0 °F 32% 29.68 in 10.0 mi NW 20.7 mph 25.3 mph N/A   Partly Cloudy
6:53 PM 64.9 °F 37.0 °F 36% 29.70 in 10.0 mi NW 15.0 mph - N/A   Clear
7:53 PM 62.1 °F 37.9 °F 41% 29.71 in 10.0 mi NW 15.0 mph - N/A   Clear
8:53 PM 57.0 °F 37.9 °F 49% 29.73 in 10.0 mi NW 9.2 mph - N/A   Clear
9:53 PM 52.0 °F 43.0 °F 71% 29.76 in 10.0 mi NNW 8.1 mph - N/A   Clear
10:53 PM 50.0 °F 41.0 °F 71% 29.76 in 10.0 mi North 11.5 mph - N/A   Clear
11:53 PM 48.0 °F 39.9 °F 74% 29.77 in 10.0 mi North 5.8 mph - N/A   Clear